Minot AFB, ND

10:11 AM CST on November 21, 2019 (GMT -0600)
Minot Air Force Base

Weather History for KMIB - September, 2019

Change the Weather History Date:

Sunday, September 8, 2019

  Actual Average Record
Temperature  
Mean Temperature 52 °F -  
Max Temperature 63 °F 72 °F 86 °F (2005)
Min Temperature 41 °F 47 °F 37 °F (2007)
Degree Days  
Heating Degree Days 13    
Growing Degree Days 2 (Base 50)    
Moisture  
Dew Point 46 °F    
Average Humidity 78    
Maximum Humidity 96    
Minimum Humidity 53    
Precipitation  
Precipitation 0.00 in - - ()
Sea Level Pressure  
Sea Level Pressure 30.14 in    
Wind  
Wind Speed 5 mph (ESE)    
Max Wind Speed 12 mph    
Max Gust Speed -    
Visibility 9 miles    
Events      
Averages and records for this station are not official NWS values.
T = Trace of Precipitation, MM = Missing Value Source: NWS Daily Summary

Daily Weather History Graph

Daily Weather History Graph

Search for Another Location

Airport or City:

Astronomy

Sep. 08, 2019 Rise Set
Actual Time 7:12 AM CDT 8:12 PM CDT
Civil Twilight 6:40 AM CDT 8:44 PM CDT
Nautical Twilight 6:02 AM CDT 9:23 PM CDT
Astronomical Twilight 5:21 AM CDT 10:03 PM CDT
Moon 5:47 PM CDT (9/8) 1:29 AM CDT (9/8)
Length of Visible Light 14h 04m
Length of Day
13h 00m
Waxing Gibbous, 75% of the Moon is Illuminated
Sep 8
Waxing Gibbous
Sep 13
Full
Sep 21
Last Quarter
Sep 28
New
Oct 5
First Quarter

Hourly Weather History & Observations

Time (CDT) Temp. Windchill Dew Point Humidity Pressure Visibility Wind Dir Wind Speed Gust Speed Precip Events Conditions
12:56 AM 48.6 °F - 46.0 °F 91% 30.22 in 10.0 mi North 3.5 mph - N/A   Overcast
1:56 AM 48.0 °F - 45.9 °F 92% 30.21 in 10.0 mi NNE 4.6 mph - N/A   Overcast
2:56 AM 48.0 °F - 45.5 °F 91% 30.21 in 5.0 mi North 3.5 mph - N/A   Overcast
3:56 AM 46.2 °F 44.1 °F 44.1 °F 92% 30.19 in 5.0 mi North 4.6 mph - N/A   Mostly Cloudy
4:56 AM 44.6 °F 41.4 °F 42.6 °F 93% 30.21 in 10.0 mi North 5.8 mph - N/A   Scattered Clouds
5:56 AM 43.0 °F 41.3 °F 41.4 °F 94% 30.20 in 6.0 mi NE 3.5 mph - N/A   Clear
6:06 AM 42.8 °F 41.1 °F 41.0 °F 93% 30.20 in 2.8 mi NE 3.5 mph - N/A   Clear
6:26 AM 42.8 °F 41.1 °F 41.0 °F 93% 30.20 in 4.0 mi NE 3.5 mph - N/A   Clear
6:56 AM 41.5 °F - 40.3 °F 95% 30.20 in 8.0 mi Calm Calm - N/A   Clear
7:56 AM 41.2 °F - 40.1 °F 96% 30.20 in 4.0 mi Calm Calm - N/A   Clear
8:56 AM 47.7 °F - 46.2 °F 95% 30.20 in 10.0 mi Calm Calm - N/A   Clear
9:56 AM 51.8 °F - 47.5 °F 85% 30.19 in 10.0 mi ESE 6.9 mph - N/A   Clear
10:36 AM 53.6 °F - 46.4 °F 77% 30.17 in 10.0 mi SE 8.1 mph - N/A   Mostly Cloudy
10:56 AM 54.5 °F - 45.7 °F 72% 30.17 in 10.0 mi SE 9.2 mph - N/A   Mostly Cloudy
11:01 AM 55.4 °F - 46.4 °F 72% 30.17 in 10.0 mi SE 10.4 mph - N/A   Scattered Clouds
11:31 AM 55.4 °F - 46.4 °F 72% 30.17 in 10.0 mi SE 4.6 mph - N/A   Mostly Cloudy
11:56 AM 55.2 °F - 46.4 °F 72% 30.17 in 10.0 mi SSE 8.1 mph - N/A   Mostly Cloudy
12:56 PM 57.7 °F - 46.0 °F 65% 30.14 in 10.0 mi SE 6.9 mph - N/A   Scattered Clouds
1:36 PM 59.0 °F - 46.4 °F 63% 30.13 in 10.0 mi East 4.6 mph - N/A   Mostly Cloudy
1:46 PM 59.0 °F - 46.4 °F 63% 30.13 in 10.0 mi SSE 3.5 mph - N/A   Scattered Clouds
1:56 PM 59.7 °F - 46.8 °F 62% 30.13 in 10.0 mi SE 4.6 mph - N/A   Scattered Clouds
2:56 PM 61.3 °F - 46.0 °F 57% 30.11 in 10.0 mi SSE 4.6 mph - N/A   Clear
3:56 PM 63.0 °F - 45.5 °F 53% 30.09 in 10.0 mi SE 10.4 mph - N/A   Clear
4:56 PM 63.1 °F - 45.7 °F 53% 30.07 in 10.0 mi ESE 10.4 mph - N/A   Clear
5:56 PM 63.1 °F - 46.2 °F 54% 30.06 in 10.0 mi ESE 11.5 mph - N/A   Clear
6:56 PM 59.9 °F - 46.8 °F 62% 30.04 in 10.0 mi ESE 9.2 mph - N/A   Clear
7:56 PM 56.7 °F - 47.7 °F 72% 30.04 in 10.0 mi East 9.2 mph - N/A   Clear
8:56 PM 54.7 °F - 46.6 °F 74% 30.04 in 10.0 mi East 8.1 mph - N/A   Clear
9:56 PM 49.5 °F - 45.7 °F 87% 30.08 in 10.0 mi SE 3.5 mph - N/A   Clear
10:56 PM 52.9 °F - 48.6 °F 85% 30.07 in 10.0 mi ESE 5.8 mph - N/A   Overcast
11:26 PM 55.4 °F - 50.0 °F 82% 30.05 in 10.0 mi East 9.2 mph - N/A   Overcast
11:46 PM 53.6 °F - 50.0 °F 88% 30.05 in 10.0 mi ESE 6.9 mph - N/A   Scattered Clouds
11:56 PM 53.1 °F - 49.3 °F 87% 30.05 in 10.0 mi ESE 4.6 mph - N/A   Mostly Cloudy